| time (UTC) | temp C | wind direction | speed KPH | gust KPH | rain 1hr cm | rain 24hr cm | rain mn cm | humidity % | barometer mb |
| 20260504185321 | -17 | 0.0 | 0.0 | 0.00 | 0.00 | 0.00 | 994.6 | ||
| 20260504183322 | -17 | 0.0 | 0.0 | 0.00 | 0.00 | 0.00 | 994.3 | ||
| 20260504182326 | -17 | 0.0 | 0.0 | 0.00 | 0.00 | 0.00 | 994.0 | ||
| 20260504181332 | -17 | 0.0 | 0.0 | 0.00 | 0.00 | 0.00 | 993.9 | ||
| 20260504180331 | -17 | 0.0 | 0.0 | 0.00 | 0.00 | 0.00 | 993.8 | ||
| 20260504175328 | 14 | 360 | 6.4 | 16.1 | 0.00 | 0.00 | 0.00 | 36 | 993.7 |
| 20260504174347 | 14 | 287 | 6.4 | 16.1 | 0.00 | 0.00 | 0.00 | 36 | 993.2 |
| 20260504173347 | 14 | 312 | 9.7 | 19.3 | 0.00 | 0.00 | 0.00 | 37 | 992.9 |
| 20260504172323 | 14 | 236 | 8.0 | 27.4 | 0.00 | 0.00 | 0.00 | 37 | 992.6 |
| 20260504171327 | 14 | 313 | 4.8 | 17.7 | 0.00 | 0.00 | 0.00 | 37 | 992.4 |
| 20260504170313 | 14 | 186 | 9.7 | 25.7 | 0.00 | 0.00 | 0.00 | 36 | 992.2 |
| 20260504160325 | 15 | 307 | 8.0 | 30.6 | 0.00 | 0.00 | 0.00 | 35 | 991.0 |
| 20260504150328 | 16 | 315 | 4.8 | 25.7 | 0.00 | 0.00 | 0.00 | 35 | 989.3 |
| 20260504141314 | 17 | 144 | 1.6 | 19.3 | 0.00 | 0.00 | 0.00 | 35 | 988.2 |
| 20260504140317 | 17 | 313 | 6.4 | 11.3 | 0.00 | 0.00 | 0.00 | 36 | 988.0 |
| 20260504130327 | 18 | 24 | 3.2 | 17.7 | 0.00 | 0.00 | 0.00 | 35 | 986.6 |
| 20260504110329 | 21 | 333 | 3.2 | 14.5 | 0.00 | 0.00 | 0.00 | 44 | 982.6 |
| 20260504100317 | 23 | 307 | 6.4 | 19.3 | 0.00 | 0.00 | 0.00 | 31 | 980.7 |
| 20260504081315 | 25 | 18 | 3.2 | 16.1 | 0.00 | 0.00 | 0.00 | 27 | 977.3 |
| 20260504080317 | 25 | 337 | 3.2 | 14.5 | 0.00 | 0.00 | 0.00 | 31 | 976.9 |
| 20260504070324 | 25 | 124 | 8.0 | 24.1 | 0.00 | 0.00 | 0.00 | 38 | 975.4 |
| 20260504050332 | 26 | 345 | 6.4 | 22.5 | 0.00 | 0.00 | 0.00 | 44 | 974.9 |
| 20260504045349 | 26 | 271 | 3.2 | 17.7 | 0.00 | 0.00 | 0.00 | 44 | 975.1 |
| 20260504044330 | 26 | 114 | 4.8 | 22.5 | 0.00 | 0.00 | 0.00 | 43 | 975.0 |
| 20260504043327 | 27 | 153 | 6.4 | 25.7 | 0.00 | 0.00 | 0.00 | 40 | 975.0 |
| 20260504042313 | 27 | 351 | 6.4 | 22.5 | 0.00 | 0.00 | 0.00 | 38 | 974.8 |
| 20260504041333 | 27 | 124 | 6.4 | 27.4 | 0.00 | 0.00 | 0.00 | 36 | 975.0 |
| 20260504040313 | 27 | 263 | 3.2 | 22.5 | 0.00 | 0.00 | 0.00 | 37 | 975.1 |
| 20260504035328 | 27 | 276 | 6.4 | 35.4 | 0.00 | 0.00 | 0.00 | 40 | 975.1 |
| 20260504034328 | 27 | 34 | 6.4 | 25.7 | 0.00 | 0.00 | 0.00 | 41 | 975.2 |
| 20260504033330 | 27 | 214 | 6.4 | 30.6 | 0.00 | 0.00 | 0.00 | 40 | 975.2 |
| 20260504032331 | 28 | 285 | 6.4 | 25.7 | 0.00 | 0.00 | 0.00 | 38 | 975.1 |
| 20260504031333 | 28 | 316 | 8.0 | 25.7 | 0.00 | 0.00 | 0.00 | 38 | 975.2 |
| 20260504030331 | 28 | 236 | 8.0 | 20.9 | 0.00 | 0.00 | 0.00 | 39 | 975.2 |
| 20260504025328 | 28 | 238 | 6.4 | 24.1 | 0.00 | 0.00 | 0.00 | 40 | 975.2 |
| 20260504024329 | 27 | 269 | 11.3 | 25.7 | 0.00 | 0.00 | 0.00 | 42 | 975.3 |
| 20260504023331 | 27 | 36 | 4.8 | 19.3 | 0.00 | 0.00 | 0.00 | 42 | 975.5 |
| 20260504022352 | 27 | 280 | 6.4 | 27.4 | 0.00 | 0.00 | 0.00 | 44 | 975.6 |
| 20260504021331 | 27 | 325 | 9.7 | 25.7 | 0.00 | 0.00 | 0.00 | 45 | 975.8 |
| 20260504020334 | 27 | 255 | 4.8 | 24.1 | 0.00 | 0.00 | 0.00 | 47 | 975.8 |
| 20260504015330 | 26 | 328 | 6.4 | 11.3 | 0.00 | 0.00 | 0.00 | 51 | 976.1 |
| 20260504014326 | 26 | 321 | 8.0 | 17.7 | 0.00 | 0.00 | 0.00 | 54 | 976.5 |
| 20260504013329 | 25 | 329 | 0.0 | 4.8 | 0.00 | 0.00 | 0.00 | 56 | 976.4 |
| 20260504012332 | 25 | 242 | 0.0 | 4.8 | 0.00 | 0.00 | 0.00 | 58 | 976.5 |
| 20260504011333 | 24 | 326 | 1.6 | 6.4 | 0.00 | 0.00 | 0.00 | 58 | 976.8 |
| 20260504010312 | 25 | 127 | 6.4 | 19.3 | 0.00 | 0.00 | 0.00 | 56 | 976.6 |
| 20260504005327 | 26 | 231 | 3.2 | 14.5 | 0.00 | 0.00 | 0.00 | 56 | 976.8 |
| 20260504003314 | 25 | 222 | 1.6 | 11.3 | 0.00 | 0.00 | 0.00 | 58 | 977.1 |
| 20260504002315 | 25 | 197 | 3.2 | 11.3 | 0.00 | 0.00 | 0.00 | 61 | 977.0 |
| 20260504001315 | 25 | 242 | 4.8 | 9.7 | 0.00 | 0.00 | 0.00 | 63 | 977.0 |
| 20260504000316 | 24 | 215 | 3.2 | 20.9 | 0.00 | 0.00 | 0.00 | 65 | 977.1 |
| 20260503235327 | 24 | 262 | 3.2 | 12.9 | 0.00 | 0.00 | 0.00 | 68 | 977.2 |
| 20260503234329 | 23 | 336 | 6.4 | 17.7 | 0.00 | 0.00 | 0.00 | 69 | 977.0 |
| 20260503233330 | 23 | 293 | 3.2 | 11.3 | 0.00 | 0.00 | 0.00 | 70 | 977.3 |
| 20260503232349 | 23 | 311 | 3.2 | 22.5 | 0.00 | 0.00 | 0.00 | 71 | 977.0 |
| 20260503231330 | 23 | 233 | 3.2 | 12.9 | 0.00 | 0.00 | 0.00 | 72 | 977.2 |
| 20260503230333 | 23 | 240 | 3.2 | 17.7 | 0.00 | 0.00 | 0.00 | 73 | 977.4 |
| 20260503225324 | 23 | 103 | 8.0 | 24.1 | 0.00 | 0.00 | 0.00 | 75 | 977.4 |
| 20260503224347 | 22 | 115 | 1.6 | 19.3 | 0.00 | 0.00 | 0.00 | 75 | 977.3 |
| 20260503223326 | 22 | 111 | 4.8 | 12.9 | 0.00 | 0.00 | 0.00 | 76 | 977.3 |
| 20260503222330 | 22 | 106 | 3.2 | 16.1 | 0.00 | 0.00 | 0.00 | 76 | 977.3 |
| 20260503221335 | 22 | 166 | 3.2 | 19.3 | 0.00 | 0.00 | 0.00 | 77 | 977.3 |
| 20260503220316 | 22 | 301 | 1.6 | 17.7 | 0.00 | 0.00 | 0.00 | 78 | 977.0 |
| 20260503215330 | 22 | 246 | 9.7 | 20.9 | 0.00 | 0.00 | 0.00 | 79 | 976.7 |
| 20260503214334 | 22 | 134 | 6.4 | 25.7 | 0.00 | 0.00 | 0.00 | 81 | 976.7 |
| 20260503213355 | 21 | 267 | 1.6 | 12.9 | 0.00 | 0.00 | 0.00 | 81 | 976.6 |
| 20260503212318 | 21 | 231 | 3.2 | 19.3 | 0.00 | 0.00 | 0.00 | 81 | 976.5 |
| 20260503211318 | -17 | 0.0 | 0.0 | 0.00 | 0.00 | 0.00 | 976.7 | ||
| 20260503210322 | -17 | 0.0 | 0.0 | 0.00 | 0.00 | 0.00 | 976.5 | ||
| 20260503204316 | -17 | 0.0 | 0.0 | 0.00 | 0.00 | 0.00 | 976.2 | ||
| 20260503203322 | -17 | 0.0 | 0.0 | 0.00 | 0.00 | 0.00 | 976.5 | ||
| 20260503202349 | -17 | 0.0 | 0.0 | 0.00 | 0.00 | 0.00 | 976.3 | ||
| 20260503201329 | -17 | 0.0 | 0.0 | 0.00 | 0.00 | 0.00 | 977.0 | ||
| 20260503195318 | -17 | 0.0 | 0.0 | 0.00 | 0.00 | 0.00 | 977.5 | ||
| 20260503194345 | -17 | 0.0 | 0.0 | 0.00 | 0.00 | 0.00 | 977.6 | ||
| 20260503193330 | -17 | 0.0 | 0.0 | 0.00 | 0.00 | 0.00 | 977.9 | ||
| 20260503192341 | -17 | 0.0 | 0.0 | 0.00 | 0.00 | 0.00 | 978.0 | ||
| 20260503190322 | -17 | 0.0 | 0.0 | 0.00 | 0.00 | 0.00 | 978.4 |